Location: *
(42.9477°S, 178.9409°W)
Time: 11:42:48
(UTC+00:00)

Daily predictions for brighter satellites

Satellite Brightness Start Highest point End
(mag) Time Altitude Azimuth Time Altitude Azimuth Time Altitude Azimuth
CZ-3B R/B 4.0 12:10:08 55° N 12:12:13 72° NE 12:42:10 10° SE
H-2A R/B 3.5 12:14:23 33° SW 12:14:23 33° SW 12:17:04 10° SSW
SL-4 R/B 4.3 12:10:24 13° SW 12:13:07 23° S 12:16:29 10° SE
Cosmos 2056 Rocket 3.9 12:13:33 10° SSW 12:17:45 57° SW 12:17:45 57° SW
Cosmos 1867 4.2 12:21:51 46° E 12:21:51 46° E 12:26:11 10° SE
Meteor 1-13 Rocket 4.2 12:15:08 10° S 12:21:09 84° E 12:21:13 84° E
Cosmos 1818 4.0 12:18:46 10° SW 12:22:54 51° WSW 12:22:54 51° WSW
ADEOS II 3.7 12:29:37 22° ENE 12:31:41 29° ESE 12:36:12 10° S
IDEFIX/ARIANE 42P 2.6 12:33:20 72° ESE 12:33:20 72° ESE 12:38:34 10° S
ATLAS 2AS CENTAUR R/B 4.0 12:27:42 10° SW 12:32:45 27° W 12:32:45 27° W
Meteor 2-9 Rocket 4.1 12:34:28 75° SW 12:34:28 75° SW 12:39:41 10° S
Cosmos 1980 Rocket 2.9 12:29:19 10° SSW 12:34:53 50° ESE 12:36:26 39° ENE
Cosmos 921 Rocket 4.1 12:37:51 41° SE 12:37:51 41° SE 12:41:00 10° SSE
Cosmos 1891 Rocket 4.3 12:36:21 74° NE 12:36:49 79° E 12:43:03 10° S
COSMOS 2406 4.3 12:37:18 32° ENE 12:37:30 32° ENE 12:42:34 10° SE
ARIANE 5 R/B 4.2 12:34:37 10° S 12:37:44 27° SW 12:37:44 27° SW
Sich 1 3.8 12:39:26 51° SSE 12:39:26 51° SSE 12:42:47 10° S
Cosmos 1048 Rocket 4.0 12:43:38 81° ESE 12:43:38 81° ESE 12:48:53 10° SSE
USA 215 3.5 12:37:39 10° ENE 12:44:08 67° SE 12:50:42 10° SW
Resurs 1-4 Rocket 2.4 12:47:12 56° ENE 12:47:57 61° ESE 12:53:14 10° S
Cosmos 1110 Rocket 4.2 12:43:07 10° SSW 12:48:19 64° ESE 12:48:44 61° E
Cosmos 1743 Rocket 4.1 12:50:51 57° SSE 12:50:51 57° SSE 12:54:27 10° S
Cosmos 1697 Rocket 3.0 12:45:38 10° SSW 12:50:29 54° WSW 12:50:29 54° WSW
CENTAUR R/B 3.0 12:50:22 55° N 12:52:13 73° ENE 12:59:16 10° SE
NPP 3.5 12:56:59 76° W 12:56:59 76° W 13:02:26 10° SSW
BREEZE M DEB (TANK) 4.2 12:59:20 21° SE 12:59:20 21° SE 13:01:28 10° ESE
ALOS 2 3.7 12:55:20 10° S 12:58:53 37° SW 12:58:53 37° SW
Nadezhda 4 Rocket 4.2 12:53:52 10° S 13:00:10 67° E 13:01:59 46° NE
GP-B 4.0 13:00:27 10° S 13:03:51 40° SW 13:03:51 40° SW
Cosmos 2082 Rocket 2.1 13:07:15 72° NNE 13:07:45 79° ENE 13:13:29 10° SSE
Cosmos 1331 Rocket 3.8 13:06:32 10° SSW 13:11:50 87° WNW 13:12:05 81° N
Cosmos 2228 Rocket 3.6 13:07:36 10° S 13:12:11 54° E 13:12:37 51° ENE
Cosmos 1805 Rocket 4.4 13:13:41 43° SW 13:13:41 43° SW 13:17:14 10° S
BREEZE-M DEB (TANK) 4.2 13:10:52 10° SW 13:14:39 75° SE 13:29:24 10° ENE
Cosmos 1464 Rocket 3.9 13:14:05 60° NNW 13:15:16 78° W 13:21:44 10° S
ATLAS 5 CENTAUR R/B 3.3 13:12:45 36° WNW 13:15:34 53° SW 13:22:26 10° SSE
Meteor 1-23 Rocket 4.5 13:17:15 10° SSW 13:22:43 49° W 13:22:49 49° W
Meteor 1-21 4.2 13:20:27 10° SSW 13:26:14 68° W 13:27:00 60° NW
CZ-2D R/B 2.0 13:26:11 64° NW 13:26:33 66° WNW 13:31:59 10° SSW
MSX 4.3 13:28:02 43° W 13:28:05 43° W 13:33:39 10° SSW
Lacrosse 5 rocket 3.8 13:30:37 10° SSW 13:33:44 22° SSE 13:36:54 10° E
Cosmos 1428 Rocket 4.4 13:29:51 10° S 13:36:05 90° N 13:38:15 43° N
H-2A R/B 3.9 13:32:49 10° S 13:36:03 27° WSW 13:36:03 27° WSW
SL-16 R/B 3.6 13:31:58 10° S 13:37:18 38° ESE 13:42:35 10° NE
Cosmos 1707 Rocket 3.4 13:34:06 10° S 13:38:37 82° W 13:38:42 81° WNW
AQUA 3.8 13:38:06 51° NNE 13:39:16 77° ESE 13:44:05 10° S
FENGYUN 3A 3.7 13:39:07 55° NW 13:39:42 58° W 13:45:08 10° SSW
Envisat 3.8 13:38:08 20° NE 13:41:28 49° ESE 13:46:25 10° S
Cosmos 1666 Rocket 3.5 13:42:07 72° W 13:42:12 73° W 13:46:38 10° S
Lacrosse 5 1.8 13:38:18 10° SW 13:43:28 87° SE 13:48:35 10° NE
COSMOS 2455 3.0 13:42:12 46° WNW 13:43:51 65° WSW 13:49:54 10° SSE
CZ-2C R/B 4.3 13:44:35 26° W 13:44:35 26° W 13:48:27 10° SW
Cosmos 1862 Rocket 3.4 13:40:17 10° S 13:44:49 80° W 13:45:08 74° NNW
H-2A R/B 3.7 13:49:37 52° WSW 13:49:37 52° WSW 13:53:04 10° SSW
Cosmos 1470 Rocket 3.7 13:49:08 54° NNE 13:50:00 71° E 13:54:33 10° SSE
SL-4 R/B 3.7 13:48:39 10° SW 13:52:25 33° SSE 13:56:20 10° E
Cosmos 1452 Rocket 4.1 13:47:46 10° SW 13:52:25 38° W 13:52:25 38° W
Cosmos 1302 Rocket 3.9 13:48:30 10° SSW 13:53:52 83° WNW 13:56:00 38° NNE
Cosmos 1908 3.3 13:59:24 55° SW 13:59:24 55° SW 14:02:29 10° S
ALOS 2.2 14:01:48 54° NNW 14:02:37 64° W 14:07:17 10° SSW
Cosmos 1703 Rocket 4.3 14:00:11 10° S 14:04:37 52° ESE 14:07:31 20° NNE
METEOR-M 4.4 14:00:55 17° NNE 14:05:07 69° ESE 14:10:30 10° S
Cosmos 1300 3.7 14:04:51 30° NE 14:05:46 36° E 14:09:02 10° SSE
Cosmos 2279 Rocket 4.3 14:03:06 23° NNE 14:07:03 65° E 14:13:18 10° SSE
Cosmos 1933 Rocket 4.2 14:05:26 30° NNE 14:07:15 51° E 14:11:32 10° SSE
H-2A R/B 4.0 14:03:53 10° ENE 14:08:06 28° ESE 14:12:27 10° S
Cosmos 2333 Rocket 3.8 14:03:09 10° S 14:08:30 36° SE 14:13:47 10° ENE
NOSS 3-2 (A) 4.3 14:04:06 31° NW 14:08:57 70° SW 14:16:49 10° SSE
Cosmos 1346 Rocket 4.1 14:09:15 26° WSW 14:09:15 26° WSW 14:12:23 10° SSW
Cosmos 2278 3.8 14:03:56 10° SSW 14:09:42 77° ESE 14:15:24 10° NNE
Cosmos 1633 Rocket 3.5 14:09:13 42° W 14:09:43 44° WSW 14:14:01 10° S
ADEOS II 2.6 14:10:27 37° WNW 14:11:06 39° W 14:16:04 10° SSW
BREEZE-M DEB (TANK) 2.7 14:05:56 10° WSW 14:11:08 68° NW 14:15:11 10° NE
IDEFIX/ARIANE 42P 4.5 14:14:02 14° W 14:14:02 14° W 14:16:10 10° WSW
Cosmos 614 Rocket 4.1 14:12:18 40° WNW 14:13:49 56° WSW 14:18:52 10° SSE
Cosmos 1092 Rocket 4.0 14:08:58 10° SSW 14:15:17 66° W 14:18:43 28° NNW
Cosmos 2322 Rocket 3.3 14:09:44 10° SSW 14:15:17 46° ESE 14:20:47 10° NE
Cosmos 967 Rocket 4.5 14:15:10 32° NNW 14:18:16 79° ENE 14:24:41 10° SE
Cosmos 1980 Rocket 3.3 14:14:00 10° SW 14:18:09 24° W 14:18:09 24° W
CZ-2C R/B 3.3 14:14:53 10° NE 14:19:54 52° ESE 14:24:56 10° S
Iridium 4 Rocket 3.6 14:16:47 10° SSW 14:20:43 38° W 14:21:10 37° WNW
NOSS 3-2 (C) 4.3 14:15:47 27° NNW 14:21:18 81° ENE 14:29:19 10° SE
COSMOS 2406 4.0 14:19:19 28° WNW 14:21:39 40° WSW 14:27:03 10° SSE
CZ-2C R/B 2.9 14:17:08 10° SSE 14:22:24 65° ENE 14:25:52 22° N
BREEZE-M DEB (TANK) 3.8 14:25:01 10° SW 14:27:15 22° S 14:29:13 10° ESE
USA 215 3.6 14:21:19 10° NNE 14:27:21 39° NW 14:33:28 10° WSW
Aureole 3 3.7 14:23:26 10° SSW 14:27:43 75° W 14:30:56 23° N
Resurs 1-4 Rocket 3.7 14:28:15 18° W 14:28:15 18° W 14:31:43 10° SW
Cosmos 1470 4.0 14:28:31 24° WSW 14:28:31 24° WSW 14:31:34 10° SSW
Okean 1-7 3.4 14:28:11 10° SSW 14:32:19 43° W 14:33:19 36° NW
Okean 2 4.4 14:29:08 10° SSW 14:32:35 28° W 14:32:36 28° W
Cosmos 1892 4.4 14:31:59 10° SSE 14:35:04 29° ESE 14:38:07 10° NE
Cosmos 2026 Rocket 4.4 14:29:13 10° SSW 14:35:09 43° W 14:38:12 26° NW
Cosmos 2219 Rocket 4.0 14:37:34 10° S 14:42:48 35° SE 14:47:58 10° ENE
CENTAUR R/B 4.0 14:37:27 14° W 14:43:20 33° SW 14:49:18 10° SSE
Cosmos 1703 2.9 14:40:26 10° SSW 14:44:05 75° W 14:46:09 24° N
Cosmos 1758 3.1 14:46:15 25° N 14:48:25 90° NE 14:52:18 10° S
Cosmos 2082 Rocket 4.0 14:49:04 12° W 14:52:30 19° SW 14:56:29 10° S
Cosmos 1269 Rocket 4.1 14:52:23 22° NNW 14:55:48 67° WSW 15:01:10 10° SSE
BlueWalker 3 1.8 14:54:06 29° NW 14:55:55 89° SSE 14:59:42 10° SE
USA 276 3.7 14:54:29 15° WSW 14:56:10 26° SSW 14:58:43 10° SE
Meteor 2-5 Rocket 4.0 14:50:13 10° S 14:56:17 81° E 15:02:15 10° NNE
Cosmos 2266 Rocket 4.2 14:51:46 10° S 14:58:06 80° E 15:04:29 10° N
NOSS 3-3 (A) 3.7 14:58:20 10° SW 15:04:30 61° WNW 15:09:45 10° NNE
Cosmos 2360 Rocket 2.2 15:00:09 10° SSW 15:05:54 90° W 15:11:34 10° NNE
Cosmos 1140 Rocket 3.5 15:01:50 14° NNW 15:06:16 81° ENE 15:11:28 10° SSE
Cosmos 1607 4.3 15:02:49 10° SSW 15:09:11 72° SE 15:15:34 10° NE
Lacrosse 5 rocket 1.1 15:08:02 10° SW 15:12:02 75° NW 15:16:09 10° NE
CZ-4 R/B 3.9 15:09:26 10° N 15:14:04 54° W 15:18:43 10° SSW
Cosmos 407 Rocket 4.0 15:10:11 10° N 15:15:13 60° ENE 15:20:24 10° SSE
OAO 2 Rocket 4.2 15:12:39 17° WNW 15:15:31 30° N 15:19:53 10° NE
Helios 1A Rocket 2.6 15:12:21 10° SSE 15:16:07 83° WSW 15:19:39 11° NNW
Envisat 4.3 15:18:16 15° NW 15:20:40 21° W 15:24:31 10° SW
Cosmos 1825 1.9 15:18:00 10° SSW 15:21:12 52° W 15:24:19 10° N
SL-16 R/B 2.9 15:16:14 10° SW 15:21:18 33° WNW 15:26:18 10° NNW
BREEZE-M DEB (TANK) 2.9 15:20:04 10° WSW 15:22:36 51° NNW 15:28:34 10° NE
YAOGAN 6 2.7 15:20:40 11° N 15:23:30 39° W 15:26:30 10° SSW
Cosmos 44 4.2 15:21:25 14° WNW 15:25:09 38° SW 15:29:54 10° SSE
SAR-Lupe-1 4.4 15:22:10 10° N 15:25:37 44° W 15:29:06 10° SSW
Lacrosse 5 3.3 15:22:42 10° W 15:25:49 16° WNW 15:28:54 10° NNW
NOSS 3-3 (C) 4.0 15:19:57 10° SW 15:25:50 46° WNW 15:30:54 10° N
Meteor 1-28 Rocket 4.1 15:24:04 10° SSE 15:27:31 44° E 15:30:56 10° N
Cosmos 2251 Rocket 4.1 15:22:54 10° N 15:28:11 61° ENE 15:33:31 10° SSE
Cosmos 1655 Rocket 4.1 15:23:53 10° S 15:30:22 90° S 15:36:49 10° N
SL-4 R/B 2.0 15:26:57 10° WSW 15:31:10 71° NW 15:35:29 10° NE
Cosmos 405 Rocket 2.4 15:30:20 10° NNW 15:33:46 67° WSW 15:37:18 10° S
Cosmos 2242 Rocket 3.8 15:29:44 10° SSW 15:34:17 54° W 15:38:44 10° N
SL-16 R/B 3.4 15:28:25 10° SSE 15:34:36 52° E 15:40:42 10° N
USA 238 DEB 4.1 15:31:19 10° NW 15:39:12 73° SW 15:46:40 10° SSE
USA 238 4.1 15:31:24 10° NW 15:39:19 74° SW 15:46:46 10° SSE
ATLAS CENTAUR R/B 3.8 15:40:48 10° N 15:44:42 33° ENE 15:49:53 10° ESE
H-2A R/B 2.5 15:42:38 10° NNW 15:47:16 37° W 15:52:04 10° SSW
Cosmos 1437 Rocket 2.5 15:44:57 10° SSW 15:48:40 70° W 15:52:16 10° N
Geosat 4.2 15:47:07 10° NNE 15:52:09 83° ESE 15:57:14 10° SSW
Cosmos 2333 Rocket 2.8 15:47:28 10° SW 15:52:46 38° WNW 15:58:02 10° N
Cosmos 1455 2.8 15:51:08 10° NW 15:54:07 31° WSW 15:57:09 10° SSW
Cosmos 2297 Rocket 4.2 15:51:10 10° NNE 15:55:54 28° ENE 16:00:39 10° SE
